Погода в Яковцево

Россия / Нижегородская область     55°53′35″N   42°38′26″E
темп.,
°C
ветер,
м/с
пор.,
м/с
влажн.,
%
обл.,
%
осадки,
мм/ч
давл.,
гПа
погр.,
м
21 апреля, ср
ср2100:00+7вюв81662100 0.1 10161133
03:00+4в91990100 7.4 10121113
06:00+4юв112086100 1.9 10091091
09:00+6юв10188390 1.9 1008945
12:00+8юв91679100 0.1 1008961
15:00+8ююв91583100 0.1 1008834
18:00+7юз3694100 0.9 1009457
21:00+4зюз4891100 2.4 1012721
22 апреля, чт
чт2200:00+4ююз51088100 0.1 1014603
03:00+4ююз41088100 0.1 1016451
06:00+4ю379181 0.0 1016346
09:00+5ююз3792100 1.1 1017726
12:00+6ююз488251 0.1 1019784
15:00+11ююз5862100 0.2 10191516
18:00+10ююз48705 0.1 1019498
21:00+7ю388188 0.1 1020185
23 апреля, пт
пт2300:00+6ююв498423 0.0 1020168
03:00+5ююв411875 0.0 1020217
06:00+6ююв5128270 0.0 1020289
09:00+12ю5106481 0.2 1020570
12:00+16ююз684498 0.0 10192256
15:00+15ю575392 0.0 10191479
18:00+14ююв48585 0.0 1018278
21:00+9юв4127517 0.0 1018242
24 апреля, сб
сб2400:00+8юв3976100 0.0 1016162
03:00+7юв4107367 0.0 1014192
06:00+8юв511865 0.0 1013269
09:00+12ююв7107261 0.1 1011834
12:00+14ююв8126495 2.0 10091585
15:00+14юв71161100 2.8 10061389
18:00+11ююв71182100 2.3 1005914
21:00+6юз6890100 5.4 1005865
25 апреля, вс
вс2500:00+5зюз71077100 0.1 10071071
03:00+3юз48919 0.1 1007358
06:00+3ююз49915 0.0 1008384
09:00+6юз68665 0.0 1008971
12:00+9юз7949100 0.3 10082200
15:00+10зюз6945100 0.5 10092222
18:00+8зюз585812 0.6 10091137
21:00+4ююз377665 0.6 1011121